Location: Waco, TX
(31.5480°N, 97.1670°W)
Time: 23:12:04
(UTC-05:00)

ISS - Pass Details

Date: 21 October 2018
Orbit: 403 x 408 km, 51.6° (Epoch: 21 October)

Event Time Altitude Azimuth Distance (km) Brightness Sun altitude
Rises 15:23:56 0° 331° (NNW) 2,330 -0.1 37.3°
Reaches altitude 10° 15:26:39 10° 356° (N) 1,468 -1.2 36.9°
Maximum altitude 15:28:42 15° 34° (NE) 1,183 -1.8 36.6°
Drops below altitude 10° 15:30:46 10° 73° (ENE) 1,464 -1.3 36.3°
Sets 15:33:28 0° 97° (E) 2,322 -0.3 35.9°
